GW3872 Weather Reports


time (UTC)temp
F
wind
direction
speed
knots
gust
knots
rain 1hr
in
rain 24hr
in
rain mn
in
humidity
%
barometer
mb
20260505101838 60 248 2.6 6.1 0.00 0.00 0.00 80 1008.5
20260505101315 60 287 2.6 7.8 0.00 0.00 0.00 80 1008.5
20260505100901 61 302 3.5 7.8 0.00 0.00 0.00 80 1008.6
20260505100330 61 44 3.5 8.7 0.00 0.00 0.00 79 1008.6
20260505095820 62 273 2.6 14.8 0.00 0.00 0.00 77 1008.6
20260505095313 63 37 6.1 14.8 0.00 0.00 0.00 75 1008.5
20260505094825 64 6 3.5 7.8 0.00 0.00 0.00 68 1008.5
20260505094317 64 319 2.6 5.2 0.00 0.00 0.00 67 1008.0
20260505093831 64 266 3.5 7.8 0.00 0.00 0.00 67 1007.9
20260505093324 64 284 4.3 8.7 0.00 0.00 0.00 66 1008.0
20260505092314 64 250 5.2 9.6 0.00 0.00 0.00 66 1007.1
20260505091827 64 253 5.2 9.6 0.00 0.00 0.00 66 1007.0
20260505091320 64 261 5.2 11.3 0.00 0.00 0.00 66 1006.8
20260505090813 64 222 7.0 11.3 0.00 0.00 0.00 66 1006.5
20260505090327 64 215 6.1 10.4 0.00 0.00 0.00 66 1006.4
20260505085818 64 257 6.1 10.4 0.00 0.00 0.00 67 1006.4
20260505085350 64 242 6.1 9.6 0.00 0.00 0.00 67 1006.4
20260505084821 64 237 5.2 10.4 0.00 0.00 0.00 66 1006.2
20260505084413 64 228 7.0 10.4 0.00 0.00 0.00 66 1006.2
20260505082817 64 246 6.1 11.3 0.00 0.00 0.00 67 1005.9
20260505082331 64 249 6.1 11.3 0.00 0.00 0.00 66 1005.8
20260505081826 64 243 5.2 12.2 0.00 0.00 0.00 66 1005.7
20260505072819 65 235 4.3 8.7 0.00 0.00 0.00 65 1005.5
20260505072331 65 256 5.2 8.7 0.00 0.00 0.00 65 1005.5
20260505071823 65 241 4.3 10.4 0.00 0.00 0.00 65 1005.6
20260505071342 65 233 5.2 12.2 0.00 0.00 0.00 64 1005.5
20260505062823 65 237 5.2 9.6 0.00 0.00 0.00 64 1005.7
20260505062315 65 242 6.1 10.4 0.00 0.00 0.00 63 1005.7
20260505061849 65 240 4.3 10.4 0.00 0.00 0.00 63 1005.6
20260505061321 65 248 5.2 9.6 0.00 0.00 0.00 63 1005.6
20260505050842 66 263 6.1 11.3 0.00 0.00 0.00 61 1005.2
20260505050313 66 287 5.2 13.0 0.00 0.00 0.00 61 1005.3
20260505020830 69 248 2.6 6.1 0.00 0.00 0.00 61 1004.8
20260505020322 69 255 3.5 7.0 0.00 0.00 0.00 60 1004.6
20260505015812 69 246 4.3 7.8 0.00 0.00 0.00 60 1004.5
20260505015329 69 219 2.6 4.3 0.00 0.00 0.00 61 1004.3
20260505014822 69 249 2.6 4.3 0.00 0.00 0.00 61 1004.3
20260505014334 69 229 2.6 5.2 0.00 0.00 0.00 60 1004.2
20260505013844 69 230 2.6 7.8 0.00 0.00 0.00 60 1004.0
20260505013315 69 243 2.6 7.8 0.00 0.00 0.00 60 1004.1
20260505012827 70 245 1.7 7.8 0.00 0.00 0.00 59 1004.2
20260505012341 70 250 2.6 7.8 0.00 0.00 0.00 59 1004.2
20260505011812 70 243 2.6 5.2 0.00 0.00 0.00 59 1004.1
20260505011325 70 248 3.5 6.1 0.00 0.00 0.00 59 1004.1
20260504232815 76 263 5.2 13.0 0.00 0.00 0.00 51 1004.3
20260504232328 76 167 7.0 10.4 0.00 0.00 0.00 50 1004.2
20260504231317 76 241 6.1 14.8 0.00 0.00 0.00 51 1004.8
20260504230830 76 229 7.0 12.2 0.00 0.00 0.00 50 1004.8
20260504230323 76 238 7.8 15.6 0.00 0.00 0.00 50 1004.9
20260504225317 76 245 7.8 13.9 0.00 0.00 0.00 50 1005.2
20260504224829 76 257 5.2 13.9 0.00 0.00 0.00 51 1005.2
20260504224321 76 253 7.8 13.0 0.00 0.00 0.00 50 1005.2
20260504223852 76 233 7.0 13.0 0.00 0.00 0.00 50 1005.2
20260504223324 76 263 7.0 10.4 0.00 0.00 0.00 49 1005.3
20260504222817 76 281 6.1 16.5 0.00 0.00 0.00 49 1005.3
20260504222330 76 253 6.1 16.5 0.00 0.00 0.00 49 1005.4
20260504221843 76 252 5.2 14.8 0.00 0.00 0.00 48 1005.5
20260504221319 76 240 9.6 20.9 0.00 0.00 0.00 47 1005.6
20260504220832 76 269 8.7 20.9 0.00 0.00 0.00 47 1005.6
20260504220325 76 246 5.2 15.6 0.00 0.00 0.00 47 1005.7
20260504215836 76 248 8.7 21.7 0.00 0.00 0.00 45 1005.6
20260504215328 76 235 12.2 21.7 0.00 0.00 0.00 45 1005.7
20260504214821 76 248 10.4 19.1 0.00 0.00 0.00 46 1005.7
20260504214314 76 276 9.6 19.1 0.00 0.00 0.00 46 1005.7
20260504213847 76 276 11.3 18.2 0.00 0.00 0.00 45 1005.7
20260504213319 76 280 10.4 21.7 0.00 0.00 0.00 47 1005.7
20260504211321 77 249 9.6 22.6 0.00 0.00 0.00 45 1005.9
20260504210314 77 248 7.0 17.4 0.00 0.00 0.00 46 1006.0
20260504205824 78 232 3.5 21.7 0.00 0.00 0.00 46 1005.9
20260504205317 78 252 10.4 19.1 0.00 0.00 0.00 45 1005.9
20260504204831 77 228 9.6 19.1 0.00 0.00 0.00 46 1005.9
20260504204326 77 248 6.1 17.4 0.00 0.00 0.00 46 1005.9
20260504203819 77 267 8.7 14.8 0.00 0.00 0.00 47 1005.9
20260504203331 78 238 5.2 11.3 0.00 0.00 0.00 48 1005.9
20260504202824 78 287 6.1 13.9 0.00 0.00 0.00 49 1005.8
20260504202315 79 240 3.5 13.9 0.00 0.00 0.00 50 1006.0
20260504201827 78 249 6.1 12.2 0.00 0.00 0.00 50 1006.0
20260504201320 77 241 7.0 12.2 0.00 0.00 0.00 49 1006.1
20260504200832 77 259 5.2 13.0 0.00 0.00 0.00 48 1006.1
20260504200328 78 267 7.8 13.0 0.00 0.00 0.00 46 1006.2
20260504195838 78 241 5.2 12.2 0.00 0.00 0.00 49 1006.4
20260504195330 78 260 7.8 18.2 0.00 0.00 0.00 48 1006.5
20260504194822 77 190 7.8 18.2 0.00 0.00 0.00 52 1006.5
20260504194314 77 249 6.1 7.8 0.00 0.00 0.00 51 1006.7
20260504193827 77 240 3.5 8.7 0.00 0.00 0.00 51 1006.7
20260504193319 77 245 4.3 11.3 0.00 0.00 0.00 53 1006.8
20260504192832 77 235 6.1 11.3 0.00 0.00 0.00 52 1006.9
20260504192325 78 242 5.2 13.9 0.00 0.00 0.00 49 1006.9
20260504191822 77 236 7.0 13.9 0.00 0.00 0.00 50 1006.9
20260504191314 77 276 6.1 13.0 0.00 0.00 0.00 50 1007.1
20260504190847 76 250 7.0 16.5 0.00 0.00 0.00 54 1007.0
20260504190320 76 279 6.1 15.6 0.00 0.00 0.00 53 1007.1
20260504185829 76 248 6.1 10.4 0.00 0.00 0.00 54 1007.3
20260504185321 76 248 5.2 8.7 0.00 0.00 0.00 54 1007.3
20260504184813 76 246 6.1 8.7 0.00 0.00 0.00 53 1007.3
20260504184326 76 252 5.2 7.8 0.00 0.00 0.00 54 1007.4
20260504183822 76 252 3.5 13.0 0.00 0.00 0.00 54 1007.5
20260504183313 76 233 7.0 13.0 0.00 0.00 0.00 54 1007.5
20260504182824 75 194 5.2 10.4 0.00 0.00 0.00 58 1007.5
20260504182317 75 259 6.1 11.3 0.00 0.00 0.00 55 1007.4
20260504181829 75 246 5.2 13.9 0.00 0.00 0.00 55 1007.4
20260504181322 74 208 7.8 16.5 0.00 0.00 0.00 57 1007.4
20260504180814 74 243 8.7 19.1 0.00 0.00 0.00 58 1007.3
20260504180327 74 259 12.2 19.1 0.00 0.00 0.00 54 1007.4
20260504175821 74 211 7.8 14.8 0.00 0.00 0.00 55 1007.4
20260504175335 74 264 5.2 20.0 0.00 0.00 0.00 60 1007.3
20260504174826 74 267 12.2 20.0 0.00 0.00 0.00 56 1007.3
20260504174339 73 229 4.3 14.8 0.00 0.00 0.00 58 1007.3
20260504173831 73 238 3.5 17.4 0.00 0.00 0.00 60 1007.4
20260504173323 73 248 6.1 11.3 0.00 0.00 0.00 59 1007.4
20260504172816 72 246 7.0 10.4 0.00 0.00 0.00 61 1007.5
20260504172328 71 193 5.2 12.2 0.00 0.00 0.00 61 1007.5
20260504171820 70 218 5.2 13.0 0.00 0.00 0.00 63 1007.6
20260504171352 69 246 5.2 14.8 0.00 0.00 0.00 65 1007.7
20260504170827 68 232 7.8 14.8 0.00 0.00 0.00 64 1007.7
20260504170320 68 252 7.8 13.9 0.00 0.00 0.00 64 1007.8
20260504160320 63 219 4.3 12.2 0.00 0.00 0.00 73 1008.2
20260504150824 64 233 8.7 13.0 0.00 0.00 0.00 69 1008.4
20260504150317 64 231 4.3 8.7 0.00 0.01 0.00 72 1008.4
20260504141315 61 259 2.6 7.8 0.00 0.01 0.00 73 1008.1
20260504140829 61 240 4.3 10.4 0.00 0.01 0.00 72 1008.0
20260504140322 62 246 6.1 10.4 0.00 0.01 0.00 72 1008.1
20260504130819 56 228 8.7 13.0 0.00 0.01 0.00 76 1008.3
20260504130314 56 224 4.3 7.8 0.00 0.01 0.00 76 1008.8
20260504110324 54 240 4.3 7.8 0.00 0.01 0.00 74 1009.1